Location: Chateh
(58.6667°N, 118.6000°W)
Time: 12:09:23
(UTC+00:00)

PCSat - Visible Passes

Search period start: 05 December 2023 00:00
Search period end: 15 December 2023 00:00
Orbit: 784 x 792 km, 67.1° (Epoch: 04 December)

Date Brightness Start Highest point End Pass type
(mag) Time Alt. Az. Time Alt. Az. Time Alt. Az.
05 Dec 12.3 10:46:34 11° ESE 10:46:40 11° ESE 10:48:14 10° E visible
05 Dec 10.5 12:27:17 36° SSE 12:28:45 45° ESE 12:33:55 10° NE visible
05 Dec 9.6 14:08:00 18° WSW 14:12:03 62° NW 14:17:28 10° NE visible
06 Dec 10.8 11:57:18 37° ESE 11:57:23 37° ESE 12:02:20 10° NE visible
06 Dec 9.5 13:38:00 33° WSW 13:40:30 72° NW 13:45:58 10° NE visible
06 Dec 10.2 15:19:33 10° W 15:24:37 37° NNW 15:29:40 10° NE visible
07 Dec 11.4 11:27:10 27° E 11:27:10 27° E 11:30:41 10° ENE visible
07 Dec 9.4 13:07:52 58° WSW 13:08:58 85° NW 13:14:26 10° NE visible
07 Dec 10.1 14:48:34 14° W 14:52:57 40° NNW 14:58:04 10° NE visible
08 Dec 12.0 10:56:55 18° E 10:56:55 18° E 10:58:59 10° ENE visible
08 Dec 9.5 12:37:37 80° ESE 12:37:37 80° ESE 12:42:55 10° NE visible
08 Dec 10.0 14:18:19 23° W 14:21:17 44° NNW 14:26:29 10° NE visible
09 Dec 12.4 10:26:36 12° ENE 10:26:36 12° ENE 10:27:09 10° ENE visible
09 Dec 10.3 12:07:17 50° ENE 12:07:17 50° ENE 12:11:24 10° NE visible
09 Dec 9.9 13:47:58 36° WNW 13:49:39 48° NNW 13:54:55 10° NE visible
09 Dec 10.4 15:29:07 10° WNW 15:34:03 34° N 15:39:01 10° ENE visible
10 Dec 11.1 11:36:53 32° ENE 11:36:53 32° ENE 11:39:51 10° NE visible
10 Dec 9.7 13:17:34 53° NW 13:18:02 55° NNW 13:23:23 10° NE visible
10 Dec 10.4 14:58:14 14° WNW 15:02:21 35° N 15:07:20 10° ENE visible
11 Dec 11.8 11:06:26 21° ENE 11:06:26 21° ENE 11:08:18 10° NE visible
11 Dec 9.8 12:47:07 57° N 12:47:07 57° N 12:51:51 10° NE visible
11 Dec 10.3 14:27:47 21° WNW 14:30:40 36° N 14:35:40 10° ENE visible
12 Dec 12.3 10:35:55 14° ENE 10:35:55 14° ENE 10:36:41 10° NE visible
12 Dec 10.4 12:16:36 44° NE 12:16:36 44° NE 12:20:19 10° NE visible
12 Dec 10.3 13:57:17 30° NW 13:58:58 38° NNW 14:04:02 10° NE visible
12 Dec 10.4 15:38:28 10° NW 15:43:30 37° NNE 15:48:32 10° E visible
13 Dec 11.1 11:46:04 31° NE 11:46:04 31° NE 11:48:47 10° NE visible
13 Dec 10.1 13:26:44 39° NNW 13:27:17 40° NNW 13:32:25 10° NE visible
13 Dec 10.5 15:07:25 13° NW 15:11:48 35° N 15:16:48 10° ENE visible
14 Dec 11.8 11:15:30 21° NE 11:15:30 21° NE 11:17:16 10° NE visible
14 Dec 10.2 12:56:10 42° N 12:56:10 42° N 13:00:50 10° NE visible
14 Dec 10.5 14:36:50 19° NW 14:40:06 34° N 14:45:04 10° ENE visible
